Location: Banios
(43.0451°N, 0.2335°E)
Time: 23:56:14
(UTC+00:00)

N. Korean satellite - Pass Details

Date: 07 December 2021
Orbit: 447 x 491 km, 97.3° (Epoch: 21 January)

Event Time Altitude Azimuth Distance (km) Brightness Sun altitude
Rises 17:06:48 0° 195° (SSW) 2,520 10.8 -7.7°
Reaches altitude 10° 17:09:10 10° 210° (SSW) 1,637 10.1 -8.1°
Maximum altitude 17:12:01 23° 265° (W) 1,048 9.3 -8.6°
Drops below altitude 10° 17:14:51 10° 319° (NW) 1,627 9.5 -9.1°
Sets 17:17:12 0° 335° (NNW) 2,499 10.2 -9.5°
